Regional Weather Roundup
Issued by NWS

Home | Current Version | Previous Version | Graphics & Text | Print | Product List | Glossary On
Versions: 1 2 3 4 5 6 7 8 9 10 11 12 13 14 15 16 17 18 19 20 21 22 23 24 25 26 27 28 29 30 31 32 33 34 35 36 37 38 39 40 41 42 43 44 45 46 47 48 49 50
000
ASUS43 KMPX 091701
RWRMN
WEATHER ROUNDUP FOR MINNESOTA
NATIONAL WEATHER SERVICE TWIN CITIES/CHANHASSEN MN
1100 AM CST TUE FEB 09 2016


NOTE: "FAIR" INDICATES FEW OR NO CLOUDS BELOW 12,000 FEET WITH NO
SIGNIFICANT WEATHER AND/OR OBSTRUCTIONS TO VISIBILITY. N/A MEANS
CURRENT SKY AND/OR WEATHER CONDITIONS ARE NOT AVAILABLE.

MNZ060>063-068>070-091800-
   Twin Cities Metro

CITY           SKY/WX    TMP DP  RH WIND       PRES   REMARKS
TWIN CITIES    SUNNY     11  -1  58 NW20G26   30.13R WCI  -7
ST PAUL        SUNNY     11   0  61 NW16      30.14R WCI  -6
CRYSTAL        SUNNY     11  -1  58 NW17      30.13R WCI  -6
BLAINE         SUNNY     12   1  62 NW18      30.11R WCI  -5
LAKEVILLE      SUNNY      9   1  72 NW17      30.10S WCI -10
EDEN PRAIRIE   SUNNY     11  -2  56 N17G24    30.12R WCI  -6
SOUTH ST PAUL  SUNNY     11   0  59 NW15G23   30.12R WCI  -5
LAKE ELMO      FAIR      12   1  62 NW14G20   30.11S WCI  -3
$$
MNZ001>005-007-008-013>017-022>024-027-028-091800-
   Northwest Minnesota

CITY           SKY/WX    TMP DP  RH WIND       PRES   REMARKS
BEMIDJI        PTSUNNY    0  -5  78 N9        30.19S WCI -15
HALLOCK        CLOUDY     7   0  72 N12       30.31S WCI  -9
ROSEAU         SUNNY     -2  -8  78 CALM      30.27S HAZE
WARROAD        CLOUDY     0  -6  78 NW6       30.25F WCI -12
THIEF RVR FALL   N/A    N/A N/A N/A MISG        N/A
CROOKSTON      SUNNY      9   3  78 N14       30.30F WCI  -8
FOSSTON        SUNNY      9  -2  61 N10       30.24S WCI  -6
DETROIT LAKES  MOSUNNY    9   3  78 N15G21    30.23S WCI  -8
MOORHEAD       CLOUDY    10   3  72 N17       30.29F WCI  -7
PARK RAPIDS    SUNNY      6  -3  66 N12       30.17S WCI  -9
MAHNOMEN       CLOUDY     6   1  77 N15       30.24S WCI -11
$$
MNZ006-009>011-018-025>026-091800-
   North Central Minnesota

CITY           SKY/WX    TMP DP  RH WIND       PRES   REMARKS
BAUDETTE       PTSUNNY    2  -5  72 N14       30.21S WCI -16
FLAG ISLAND    PTSUNNY    1  -4  78 NW14      30.23S WCI -17
INTL FALLS     SUNNY      0  -8  69 NW12      30.17S WCI -17
WASKISH        SUNNY      3  -4  72 NW9       30.21S WCI -11
LONGVILLE      MOSUNNY    3  -6  66 NW12      30.17R WCI -13
GRAND RAPIDS   SUNNY      1  -8  66 N17       30.12R WCI -19
CRANE LAKE     PTSUNNY   -2  -9  71 NW9G17    30.16R WCI -18
ORR            MOSUNNY    1  -9  60 NW5       30.09S WCI  -8
COOK           MOSUNNY    1  -8  66 NW13G20   30.10S WCI -16
WALKER         FAIR       1  -6  73 N13G21    30.18S WCI -17
$$
MNZ012-019>021-037-091800-
   Northeast Minnesota

CITY           SKY/WX    TMP DP  RH WIND       PRES   REMARKS
DULUTH         MOSUNNY    4  -6  63 N17       30.03R WCI -16
ELY            MOSUNNY    1  -6  71 NW13G18   30.04R WCI -16
HIBBING        SUNNY      1  -6  72 NW17      30.09R WCI -19
EVELETH        SUNNY      3  -6  66 N12G20    30.08R WCI -13
DULUTH HARBOR  SUNNY      9   0  66 NW13      30.12R WCI  -7
TWO HARBORS    SUNNY     10  -2  56 NW9G20    30.01R WCI  -2
SILVER BAY     FLURRIES   9  -4  56 NW10G17   30.01R WCI  -6
GRAND MARAIS     N/A      9  -4  55 NW10G18   30.03R WCI  -5
G MARAIS ARPRT LGT SNOW   0  -9  65 NW20G26   29.89F WCI -22
$$
MNZ029>031-032-039>041-046>048-054>057-064-091800-
   West Central Minnesota

CITY           SKY/WX    TMP DP  RH WIND       PRES   REMARKS
FERGUS FALLS   CLOUDY     9   3  78 N18       30.28S WCI -10
WHEATON        CLOUDY    16   9  73 NW15      30.29S WCI   1
MORRIS         CLOUDY    10   3  72 NW21      30.22F WCI  -9
ALEXANDRIA     CLOUDY     9   0  67 N14G24    30.19R WCI  -7
ELBOW LAKE     CLOUDY     9   2  74 NW14G20   30.24S WCI  -7
WADENA         SUNNY      5  -2  72 N16       30.18S WCI -14
GLENWOOD       SUNNY      9   1  72 NW16      30.19S WCI  -9
APPLETON       CLOUDY    12   5  73 NW14      30.26S WCI  -3
BENSON         CLOUDY    10   3  72 N13       30.23S WCI  -5
ORTONVILLE     CLOUDY    12   3  67 N15       30.26R WCI  -4
MADISON        PTSUNNY   14   7  73 N15       30.27R WCI  -1
WILLMAR        FAIR      12   3  67 NW21      30.21S WCI  -6
$$
MNZ033>034-036-042>043-049>051-058-059-091800-
   Central Minnesota

CITY           SKY/WX    TMP DP  RH WIND       PRES   REMARKS
ST CLOUD       SUNNY      9  -2  61 NW15G23   30.16R WCI  -8
SAUK CENTRE    FAIR       7  -1  69 NW14      30.19R WCI -10
PAYNESVILLE    SUNNY      9   1  72 NW17      30.19S WCI -10
AITKIN         SUNNY      9  -8  47 NW13G18   30.13R WCI  -7
PINE RIVER     SUNNY      3  -4  72 N13G20    30.19S WCI -14
BRAINERD       SUNNY      5  -4  66 N16       30.16R WCI -14
STAPLES        SUNNY      5  -2  72 N14       30.17S WCI -12
LONG PRAIRIE   FAIR       5   0  78 NW10G20   30.17S WCI -10
LITTLE FALLS   SUNNY      9  -4  56 NW8       30.18S WCI  -4
LITCHFIELD     SUNNY     10   3  72 N16G24    30.18R WCI  -7
BUFFALO        SUNNY     11   0  61 NW12G21   30.17R WCI  -3
MAPLE LAKE     SUNNY     12   2  65 NW15      30.17R WCI  -4
$$
MNZ037-044-045-052-053-091800-
   East Central Minnesota

CITY           SKY/WX    TMP DP  RH WIND       PRES   REMARKS
PRINCETON      SUNNY     10  -2  56 NW15      30.14R WCI  -6
MORA           SUNNY     10  -2  56 NW16G23   30.13R WCI  -7
CAMBRIDGE      SUNNY     10   0  61 NW13G20   30.11R WCI  -5
RUSH CITY      SUNNY     10  -2  58 NW13G18   30.11S WCI  -6
MOOSE LAKE     SUNNY      9  -6  52 N6        30.09R WCI  -1
HINCKLEY       FAIR      10   0  61 NW14G23   30.09S WCI  -5
CLOQUET        SUNNY      3  -6  66 NW13G21   30.06R WCI -14
MCGREGOR       SUNNY      7  -4  61 NW17      30.12R WCI -12
$$
MNZ071>073-080-081-089-090-097-098-091800-
   Southwest Minnesota

CITY           SKY/WX    TMP DP  RH WIND       PRES   REMARKS
MONTEVIDEO     CLOUDY    10   7  85 N21       30.26R WCI  -9
GRANITE FALLS  CLOUDY    13   6  72 NW15G29   30.26R WCI  -3
CANBY          CLOUDY    16   9  74 W13       30.27S WCI   2
MARSHALL       CLOUDY    11   4  73 N23       30.23R WCI  -9
REDWOOD FALLS  SUNNY     12   3  67 NW16G25   30.21S WCI  -5
OLIVIA         SUNNY     14   5  67 NW20G26   30.20S WCI  -3
PIPESTONE      SUNNY     12  -2  52 N13G23    30.19S WCI  -3
WINDOM         SUNNY      9   3  78 NW24G32   30.17R WCI -12
WORTHINGTON    SUNNY      9   1  72 NW20      30.20R WCI -11
JACKSON        SUNNY     10   1  67 NW22G30   30.16R WCI  -9
TRACY          SUNNY     13   6  73 N23G30    30.21S WCI  -6
SLAYTON        MOSUNNY    9   4  77 NW13G20   30.20R WCI  -6
$$
MNZ065>067-074>077-082>085-091>093-091800-
   South Central Minnesota

CITY           SKY/WX    TMP DP  RH WIND       PRES   REMARKS
MANKATO        SUNNY      9   0  66 NW21      30.14R WCI -11
NEW ULM        SUNNY     10   1  67 NW22      30.17R WCI  -9
ST JAMES       SUNNY     10   3  72 NW23      30.18S WCI -10
FAIRMONT       SUNNY      9   0  66 NW26G32   30.14S WCI -13
GLENCOE        SUNNY     11   3  70 NW15G24   30.16R WCI  -5
FARIBAULT        N/A     10   0  61 NW15      30.11R WCI  -6
OWATONNA       SUNNY      9   0  66 NW24      30.09S WCI -12
WASECA         SUNNY     10   3  72 NW21      30.13R WCI  -9
ALBERT LEA     CLOUDY     9   1  72 NW14G24   30.08R WCI  -8
$$
MNZ078>079-086>088-094>096-091800-
   Southeast Minnesota

CITY           SKY/WX    TMP DP  RH WIND       PRES   REMARKS
ROCHESTER      SUNNY      7  -1  70 NW21G29   30.03R WCI -13
RED WING       SUNNY     10  -4  52 N14G21    30.09R WCI  -5
STANTON        SUNNY     11   1  62 NW17      30.09R WCI  -6
DODGE CENTER   MOSUNNY    9   0  66 N18G25    30.04R WCI -10
WINONA         SUNNY     14   3  62 N12G18    30.06S WCI   0
AUSTIN         MOSUNNY    9   0  66 NW18G25   30.06R WCI -10
PRESTON        SUNNY      7  -3  64 N12G20    30.02R WCI  -9
$$
ABBREVIATIONS USED IN REMARKS
   TC - TEMPERATURES IN CELSIUS
  WCI - WIND CHILL INDEX
   HX - HEAT INDEX
  VSB - VISIBILITY
$$



USA.gov is the U.S. government's official web portal to all federal, state and local government web resources and services.